Location: St Paul
(33.4390°N, 83.7350°W)
Time: 09:09:26
(UTC-04:00)

Milstar 3 Cent rocket - Pass Details

Date: 06 October 2017
Orbit: 713 x 5141 km, 28.3° (Epoch: 19 June)

Event Time Altitude Azimuth Distance (km) Brightness Sun altitude
Rises 20:13:39 0° 268° (W) 5,095 8.2 -13.6°
Reaches altitude 10° 20:17:50 10° 264° (W) 3,511 6.8 -14.5°
Maximum altitude 20:25:20 51° 190° (S) 1,127 2.9 -16.0°
Enters shadow 20:28:21 23° 123° (ESE) 1,623 3.2 -16.7°
